Weather History for South Bend, IN

Change the Weather History Date:

Sunday, March 31, 2013

  Actual Average Record
Temperature  
Mean Temperature 48 °F 43 °F  
Max Temperature 59 °F 53 °F 85 °F (1981)
Min Temperature 37 °F 33 °F 5 °F (1923)
Degree Days  
Heating Degree Days 17 22  
Month to date heating degree days 1014 855  
Since 1 July heating degree days 5411 5544  
Cooling Degree Days 0 0  
Month to date cooling degree days 0 1  
Year to date cooling degree days 0 1  
Moisture  
Dew Point 36 °F    
Average Humidity 63    
Maximum Humidity 89    
Minimum Humidity 36    
Precipitation  
Precipitation T in 0.09 in 1.07 in (1926)
Month to date precipitation 1.26 2.42  
Year to date precipitation 8.75 6.66  
Snow  
Snow 0.00 in - - ()
Month to date snowfall 12.2  
Snow Depth 0.00 in    
Sea Level Pressure  
Sea Level Pressure 29.78 in    
Wind  
Wind Speed 13 mph (West)    
Max Wind Speed 26 mph    
Max Gust Speed 33 mph    
Visibility 8 miles    
Events Rain    
T = Trace of Precipitation, MM = Missing Value Source: NWS Daily Summary

Daily Weather History Graph

Daily Weather History Graph

Search for Another Location

Airport:

Trip Planner

Search our weather history database for the weather conditions in past years. The results will help you decide how hot, cold, wet, or windy it might be!

Date:

Astronomy

Mar. 31, 2013 Rise Set
Actual Time 7:29 AM EDT 8:09 PM EDT
Civil Twilight 7:01 AM EDT 8:37 PM EDT
Nautical Twilight 6:28 AM EDT 9:11 PM EDT
Astronomical Twilight 5:54 AM EDT 9:45 PM EDT
Moon 12:18 AM EDT (3/31) 10:13 AM EDT (3/31)
Length of Visible Light 13h 36m
Length of Day
12h 40m
Waning Gibbous, 78% of the Moon is Illuminated
Mar 31
Waning Gibbous
Apr 3
Last Quarter
Apr 10
New
Apr 18
First Quarter
Apr 25
Full

Hourly Weather History & Observations

Time (EDT) Temp. Windchill Dew Point Humidity Pressure Visibility Wind Dir Wind Speed Gust Speed Precip Events Conditions
12:54 AM 46.9 °F - 35.1 °F 63% 29.90 in 10.0 mi SSW 5.8 mph - 0.00 in   Overcast
1:54 AM 46.9 °F - 34.0 °F 61% 29.86 in 10.0 mi South 5.8 mph - N/A   Overcast
2:54 AM 46.9 °F - 34.0 °F 61% 29.84 in 10.0 mi SSW 5.8 mph - N/A   Overcast
3:54 AM 46.9 °F - 34.0 °F 61% 29.81 in 10.0 mi SW 5.8 mph - N/A   Overcast
4:54 AM 46.9 °F - 35.1 °F 63% 29.79 in 10.0 mi SW 6.9 mph - 0.00 in   Overcast
5:54 AM 45.0 °F 40.1 °F 39.9 °F 82% 29.78 in 7.0 mi WSW 9.2 mph - 0.00 in Rain Light Rain
6:09 AM 44.6 °F 39.7 °F 39.2 °F 81% 29.77 in 8.0 mi WSW 9.2 mph - 0.00 in   Overcast
6:32 AM 44.6 °F 39.7 °F 39.2 °F 81% 29.77 in 5.0 mi SW 9.2 mph - 0.00 in   Haze
6:54 AM 44.1 °F 39.5 °F 42.1 °F 93% 29.77 in 2.0 mi WSW 8.1 mph - 0.00 in   Overcast
7:02 AM 44.6 °F 40.7 °F 42.8 °F 93% 29.77 in 1.8 mi WSW 6.9 mph - N/A   Overcast
7:15 AM 44.6 °F 40.7 °F 42.8 °F 93% 29.77 in 2.0 mi WSW 6.9 mph - N/A   Overcast
7:24 AM 44.6 °F 40.2 °F 42.8 °F 93% 29.77 in 1.8 mi WSW 8.1 mph - N/A   Overcast
7:54 AM 44.1 °F 39.5 °F 43.0 °F 96% 29.78 in 1.5 mi WSW 8.1 mph - 0.00 in Rain Light Rain
8:21 AM 44.6 °F 40.2 °F 42.8 °F 93% 29.77 in 2.5 mi West 8.1 mph - 0.00 in   Overcast
8:24 AM 44.6 °F 39.7 °F 42.8 °F 93% 29.77 in 3.0 mi WNW 9.2 mph - 0.00 in   Overcast
8:54 AM 45.0 °F 40.6 °F 42.1 °F 90% 29.77 in 4.0 mi WNW 8.1 mph - 0.00 in   Overcast
9:17 AM 44.6 °F 39.2 °F 42.8 °F 93% 29.77 in 4.0 mi WNW 10.4 mph - N/A   Overcast
9:54 AM 45.0 °F 39.3 °F 41.0 °F 86% 29.79 in 5.0 mi WNW 11.5 mph - N/A   Overcast
10:43 AM 48.2 °F - 39.2 °F 71% 29.77 in 10.0 mi WNW 11.5 mph - N/A   Mostly Cloudy
10:54 AM 48.0 °F - 39.9 °F 74% 29.78 in 10.0 mi WNW 11.5 mph - N/A   Mostly Cloudy
11:47 AM 50.0 °F - 37.4 °F 62% 29.78 in 10.0 mi West 8.1 mph 18.4 mph N/A   Scattered Clouds
11:54 AM 50.0 °F - 37.9 °F 63% 29.78 in 10.0 mi West 11.5 mph 17.3 mph N/A   Partly Cloudy
12:54 PM 54.0 °F - 33.1 °F 45% 29.76 in 10.0 mi West 10.4 mph 23.0 mph N/A   Clear
1:54 PM 57.0 °F - 30.9 °F 37% 29.74 in 10.0 mi WNW 17.3 mph - N/A   Clear
2:54 PM 57.9 °F - 30.0 °F 35% 29.72 in 10.0 mi West 21.9 mph 28.8 mph N/A   Clear
3:54 PM 57.9 °F - 32.0 °F 37% 29.71 in 10.0 mi WNW 16.1 mph - N/A   Clear
4:54 PM 57.0 °F - 34.0 °F 42% 29.70 in 10.0 mi West 17.3 mph 26.5 mph N/A   Scattered Clouds
5:54 PM 55.9 °F - 32.0 °F 40% 29.70 in 10.0 mi WNW 20.7 mph 28.8 mph N/A   Mostly Cloudy
6:54 PM 54.0 °F - 33.1 °F 45% 29.72 in 10.0 mi WNW 16.1 mph 25.3 mph 0.00 in   Mostly Cloudy
7:54 PM 48.0 °F - 30.0 °F 50% 29.76 in 10.0 mi NW 21.9 mph 33.4 mph N/A   Mostly Cloudy
8:54 PM 42.1 °F 33.3 °F 30.9 °F 65% 29.80 in 10.0 mi NW 19.6 mph 25.3 mph N/A   Scattered Clouds
9:54 PM 39.9 °F 31.8 °F 27.0 °F 60% 29.82 in 10.0 mi NW 15.0 mph 26.5 mph N/A   Clear
10:54 PM 39.0 °F 31.8 °F 26.1 °F 60% 29.83 in 10.0 mi NW 11.5 mph - N/A   Partly Cloudy
11:54 PM 37.9 °F 29.6 °F 28.0 °F 68% 29.84 in 10.0 mi NW 13.8 mph 21.9 mph N/A   Partly Cloudy